[Iaude] MPEC F59: 2024 FU1 [a=1.25,e=0.22,i=11.0,H=24.1]
    mpec at cfa.harvard.edu 
    mpec at cfa.harvard.edu
       
    Thu Mar 21 06:27:55 EDT 2024
    
    
  
M.P.E.C. 2024-F59                                Issued 2024 March 21, 10:26 UT
     The Minor Planet Electronic Circulars contain information on unusual
         minor planets, routine data on comets and natural satellites,
         and occasional editorial announcements.  They are published
    on behalf of Division F of the International Astronomical Union by the
          Minor Planet Center, Smithsonian Astrophysical Observatory,
                          Cambridge, MA 02138, U.S.A.
			  
             Prepared using the Tamkin Foundation Computer Network
                              MPC at CFA.HARVARD.EDU
            URL https://www.minorplanetcenter.net/    ISSN 1523-6714
                                    2024 FU1                                    
Observations:
     K24F01U* C2024 03 19.32830212 47 46.720+10 17 46.50         20.76GVEF059V00
     K24F01U  C2024 03 19.33391312 47 45.848+10 17 36.64         21.27GVEF059V00
     K24F01U  C2024 03 19.33952212 47 44.970+10 17 26.27         21.28GVEF059V00
     K24F01U  C2024 03 19.34512212 47 44.120+10 17 16.19         21.14GVEF059V00
     K24F01U KC2024 03 19.36218 12 47 41.49 +10 16 44.9          20.8 RVEF059291
     K24F01U KC2024 03 19.36667 12 47 40.79 +10 16 36.5          20.7 RVEF059291
     K24F01U KC2024 03 19.37147 12 47 40.03 +10 16 28.2          20.7 RVEF059291
     K24F01U KC2024 03 20.24574212 45 39.402+09 48 49.61         21.24GVEF059I52
     K24F01U KC2024 03 20.24879612 45 38.984+09 48 43.24         21.04GVEF059I52
     K24F01U KC2024 03 20.25184012 45 38.466+09 48 38.02         21.36GVEF059I52
     K24F01U KC2024 03 20.25487512 45 38.070+09 48 32.94         20.66GVEF059I52
     K24F01U KC2024 03 21.36754 12 42 48.89 +09 10 49.5          21.0 RVEF059691
     K24F01U KC2024 03 21.37971 12 42 46.76 +09 10 24.1          20.5 RVEF059691
     K24F01U KC2024 03 21.39178 12 42 44.64 +09 09 58.1          21.1 RVEF059691
Observer details:
291 LPL/Spacewatch II.  Observer M. T. Read.  1.8-m f/2.7 reflector + CCD.
691 Steward Observatory, Kitt Peak-Spacewatch.  Observer M. T. Read.  0.9-m
    f/3 reflector + CCD.
I52 Steward Observatory, Mt. Lemmon Station.  Observer R. A. Kowalski.
    Measurers T. Beuden, V. F. Carvajal, D. Fay, J. B. Fazekas, D. C. Fuls, A.
    R. Gibbs, A. D. Grauer, H. Groeller, J. K. Hogan, R. A. Kowalski, S. M.
    Larson, G. J. Leonard, D. Rankin, R. L. Seaman, F. C. Shelly, K. W.
    Wierzchos.  1.0-m prime focus + CCD.
V00 Kitt Peak-Bok.  Observers V. F. Carvajal, H. Groeller.  Measurers M. J.
    Brucker, C. E. Woodward, T. Beuden, V. F. Carvajal, D. Fay, J. B. Fazekas,
    D. C. Fuls, A. R. Gibbs, H. Groeller, J. K. Hogan, R. A. Kowalski, S. M.
    Larson, C. Lejoly, G. J. Leonard, R. A. Mastaler, R. S. McMillan, D.
    Rankin, R. L. Seaman, F. C. Shelly, K. W. Wierzchos.  2.25-m reflector +
    4x4K mosaic CCD.
Orbital elements:
2024 FU1                                                 Earth MOID = 0.0757 AU
Epoch 2024 Mar. 31.0 TT = JDT 2460400.5                 MPC                     
M 308.77621              (2000.0)            P               Q                  
n   0.70851549     Peri.  253.63651     -0.10344656     +0.99401896             
a   1.2461486      Node    10.61134     -0.82454287     -0.06602238             
e   0.2242021      Incl.   10.95720     -0.55626241     -0.08699054             
P   1.39           H   24.14          G   0.15           U   9                  
Residuals in seconds of arc
240319 V00  0.0   0.3-    240319 291  0.3+  0.0     240320 I52  1.4+  1.0+
240319 V00  0.0   0.1+    240319 291  0.1+  0.5+    240321 691  0.1-  0.1-
240319 V00  0.2-  0.0     240320 I52  0.6-  0.0     240321 691  0.0   0.3+
240319 V00  0.1+  0.2+    240320 I52  0.5+  0.5-    240321 691  0.1-  0.1+
240319 291  0.4+  0.2+    240320 I52  0.1+  0.2+
Ephemeris:
2024 FU1                 a,e,i = 1.25, 0.22, 11                  q = 0.9668
Date    TT    R. A. (2000) Decl.     Delta      r    Elong.  Phase     V
2024 02 20    13 06 35.7 +16 31 05   0.3390  1.2578   137.0    32.4    23.7
...
2024 03 06    13 06 12.6 +14 38 54   0.2408  1.2055   149.3    24.8    22.6
...
2024 03 14    12 57 47.5 +12 32 59   0.1955  1.1772   157.5    18.8    21.9
...
2024 03 20    12 46 13.0 +09 57 09   0.1653  1.1560   164.6    13.2    21.3
2024 03 21    12 43 46.0 +09 24 00   0.1606  1.1525   165.8    12.2    21.2
2024 03 22    12 41 09.2 +08 48 25   0.1560  1.1490   167.1    11.2    21.1
...
2024 03 28    12 21 39.7 +04 14 51   0.1309  1.1280   172.6     6.5    20.5
...
2024 04 05    11 43 34.5 -05 13 16   0.1051  1.1008   161.8    16.5    20.3
...
2024 04 20    09 49 35.7 -31 21 55   0.08916 1.0533   121.0    54.9    21.0
A. U. Tomatic                (C) Copyright 2024 MPC           M.P.E.C. 2024-F59
    
    
More information about the Iaude
mailing list